#Datum;Uhrzeit;WR;Pac;DaySum;Status;WR;Pac;DaySum;Status;Pdc1;Udc;Temp;WR;Pac;DaySum;Status;Pdc1;Udc;Temp;WR;Pac;DaySum;Status;Pdc1;Udc;Temp;WR;Pac;DaySum;Status;Pdc1;Pdc2;Udc1;Udc2;Temp;WR;Pac;DaySum;Status;Pdc1;Pdc2;Udc1;Udc2;Temp;WR;Pac;DaySum;Status;Pdc1;Udc;Temp;WR;Pac;DaySum;Status;Pdc1;Udc;Temp;WR;Pac;DaySum;Status;Pdc1;Udc;Temp
05.12.19;23:55:00;1;235;11712;0;2;0;2054;0;0;0;0;3;0;1228;0;0;0;0;4;0;1684;0;0;0;0;5;0;4554;0;0;0;0;0;0;6;0;3250;0;0;0;0;0;0;7;0;2001;0;0;0;0;8;0;2034;0;0;0;0;9;0;1056;0;0;0;0
05.12.19;23:50:00;1;234;11693;0;2;0;2054;0;0;0;0;3;0;1228;0;0;0;0;4;0;1684;0;0;0;0;5;0;4554;0;0;0;0;0;0;6;0;3250;0;0;0;0;0;0;7;0;2001;0;0;0;0;8;0;2034;0;0;0;0;9;0;1056;0;0;0;0
05.12.19;23:45:00;1;920;11673;0;2;0;2054;0;0;0;0;3;0;1228;0;0;0;0;4;0;1684;0;0;0;0;5;0;4554;0;0;0;0;0;0;6;0;3250;0;0;0;0;0;0;7;0;2001;0;0;0;0;8;0;2034;0;0;0;0;9;0;1056;0;0;0;0
05.12.19;23:40:00;1;238;11630;0;2;0;2054;0;0;0;0;3;0;1228;0;0;0;0;4;0;1684;0;0;0;0;5;0;4554;0;0;0;0;0;0;6;0;3250;0;0;0;0;0;0;7;0;2001;0;0;0;0;8;0;2034;0;0;0;0;9;0;1056;0;0;0;0
05.12.19;23:35:00;1;238;11610;0;2;0;2054;0;0;0;0;3;0;1228;0;0;0;0;4;0;1684;0;0;0;0;5;0;4554;0;0;0;0;0;0;6;0;3250;0;0;0;0;0;0;7;0;2001;0;0;0;0;8;0;2034;0;0;0;0;9;0;1056;0;0;0;0
05.12.19;23:30:00;1;299;11590;0;2;0;2054;0;0;0;0;3;0;1228;0;0;0;0;4;0;1684;0;0;0;0;5;0;4554;0;0;0;0;0;0;6;0;3250;0;0;0;0;0;0;7;0;2001;0;0;0;0;8;0;2034;0;0;0;0;9;0;1056;0;0;0;0
05.12.19;23:25:00;1;374;11564;0;2;0;2054;0;0;0;0;3;0;1228;0;0;0;0;4;0;1684;0;0;0;0;5;0;4554;0;0;0;0;0;0;6;0;3250;0;0;0;0;0;0;7;0;2001;0;0;0;0;8;0;2034;0;0;0;0;9;0;1056;0;0;0;0
05.12.19;23:20:00;1;1063;11516;0;2;0;2054;0;0;0;0;3;0;1228;0;0;0;0;4;0;1684;0;0;0;0;5;0;4554;0;0;0;0;0;0;6;0;3250;0;0;0;0;0;0;7;0;2001;0;0;0;0;8;0;2034;0;0;0;0;9;0;1056;0;0;0;0
05.12.19;23:15:00;1;345;11480;0;2;0;2054;0;0;0;0;3;0;1228;0;0;0;0;4;0;1684;0;0;0;0;5;0;4554;0;0;0;0;0;0;6;0;3250;0;0;0;0;0;0;7;0;2001;0;0;0;0;8;0;2034;0;0;0;0;9;0;1056;0;0;0;0
05.12.19;23:10:00;1;335;11451;0;2;0;2054;0;0;0;0;3;0;1228;0;0;0;0;4;0;1684;0;0;0;0;5;0;4554;0;0;0;0;0;0;6;0;3250;0;0;0;0;0;0;7;0;2001;0;0;0;0;8;0;2034;0;0;0;0;9;0;1056;0;0;0;0
05.12.19;23:05:00;1;335;11423;0;2;0;2054;0;0;0;0;3;0;1228;0;0;0;0;4;0;1684;0;0;0;0;5;0;4554;0;0;0;0;0;0;6;0;3250;0;0;0;0;0;0;7;0;2001;0;0;0;0;8;0;2034;0;0;0;0;9;0;1056;0;0;0;0
05.12.19;23:00:00;1;587;11395;0;2;0;2054;0;0;0;0;3;0;1228;0;0;0;0;4;0;1684;0;0;0;0;5;0;4554;0;0;0;0;0;0;6;0;3250;0;0;0;0;0;0;7;0;2001;0;0;0;0;8;0;2034;0;0;0;0;9;0;1056;0;0;0;0
05.12.19;22:55:00;1;316;11346;0;2;0;2054;0;0;0;0;3;0;1228;0;0;0;0;4;0;1684;0;0;0;0;5;0;4554;2;0;0;0;0;0;6;0;3250;2;0;0;0;0;0;7;0;2001;0;0;0;0;8;0;2034;0;0;0;0;9;0;1056;0;0;0;0
05.12.19;22:50:00;1;268;11319;0;2;0;2054;0;0;0;0;3;0;1228;0;0;0;0;4;0;1684;0;0;0;0;5;0;4554;2;0;0;0;0;0;6;0;3250;2;0;0;0;0;0;7;0;2001;0;0;0;0;8;0;2034;0;0;0;0;9;0;1056;0;0;0;0
05.12.19;22:45:00;1;274;11297;0;2;0;2054;0;0;0;0;3;0;1228;0;0;0;0;4;0;1684;0;0;0;0;5;0;4554;2;0;0;0;0;0;6;0;3250;2;0;0;0;0;0;7;0;2001;0;0;0;0;8;0;2034;0;0;0;0;9;0;1056;0;0;0;0
05.12.19;22:40:00;1;332;11274;0;2;0;2054;0;0;0;0;3;0;1228;0;0;0;0;4;0;1684;0;0;0;0;5;0;4554;2;0;0;0;0;0;6;0;3250;2;0;0;0;0;0;7;0;2001;0;0;0;0;8;0;2034;0;0;0;0;9;0;1056;0;0;0;0
05.12.19;22:35:00;1;310;11226;0;2;0;2054;0;0;0;0;3;0;1228;0;0;0;0;4;0;1684;0;0;0;0;5;0;4554;2;0;0;0;0;0;6;0;3250;2;0;0;0;0;0;7;0;2001;0;0;0;0;8;0;2034;0;0;0;0;9;0;1056;0;0;0;0
05.12.19;22:30:00;1;319;11200;0;2;0;2054;0;0;0;0;3;0;1228;0;0;0;0;4;0;1684;0;0;0;0;5;0;4554;2;0;0;0;0;0;6;0;3250;2;0;0;0;0;0;7;0;2001;0;0;0;0;8;0;2034;0;0;0;0;9;0;1056;0;0;0;0
05.12.19;22:25:00;1;267;11174;0;2;0;2054;0;0;0;0;3;0;1228;0;0;0;0;4;0;1684;0;0;0;0;5;0;4554;2;0;0;0;0;0;6;0;3250;2;0;0;0;0;0;7;0;2001;0;0;0;0;8;0;2034;0;0;0;0;9;0;1056;0;0;0;0
05.12.19;22:20:00;1;598;11151;0;2;0;2054;0;0;0;0;3;0;1228;0;0;0;0;4;0;1684;0;0;0;0;5;0;4554;2;0;0;0;0;0;6;0;3250;2;0;0;0;0;0;7;0;2001;0;0;0;0;8;0;2034;0;0;0;0;9;0;1056;0;0;0;0
05.12.19;22:15:00;1;2457;11107;0;2;0;2054;0;0;0;0;3;0;1228;0;0;0;0;4;0;1684;0;0;0;0;5;0;4554;2;0;0;0;0;0;6;0;3250;2;0;0;0;0;0;7;0;2001;0;0;0;0;8;0;2034;0;0;0;0;9;0;1056;0;0;0;0
05.12.19;22:10:00;1;1119;10893;0;2;0;2054;0;0;0;0;3;0;1228;0;0;0;0;4;0;1684;0;0;0;0;5;0;4554;2;0;0;0;0;0;6;0;3250;2;0;0;0;0;0;7;0;2001;0;0;0;0;8;0;2034;0;0;0;0;9;0;1056;0;0;0;0
05.12.19;22:05:00;1;289;10842;0;2;0;2054;0;0;0;0;3;0;1228;0;0;0;0;4;0;1684;0;0;0;0;5;0;4554;2;0;0;0;0;0;6;0;3250;2;0;0;0;0;0;7;0;2001;0;0;0;0;8;0;2034;0;0;0;0;9;0;1056;0;0;0;0
05.12.19;22:00:00;1;337;10816;0;2;0;2054;0;0;0;0;3;0;1228;0;0;0;0;4;0;1684;0;0;0;0;5;0;4554;2;0;0;0;0;0;6;0;3250;2;0;0;0;0;0;7;0;2001;0;0;0;0;8;0;2034;0;0;0;0;9;0;1056;0;0;0;0
05.12.19;21:55:00;1;350;10789;0;2;0;2054;0;0;0;0;3;0;1228;0;0;0;0;4;0;1684;0;0;0;0;5;0;4554;2;0;0;0;0;0;6;0;3250;2;0;0;0;0;0;7;0;2001;0;0;0;0;8;0;2034;0;0;0;0;9;0;1056;0;0;0;0
05.12.19;21:50:00;1;348;10740;0;2;0;2054;0;0;0;0;3;0;1228;0;0;0;0;4;0;1684;0;0;0;0;5;0;4554;2;0;0;0;0;0;6;0;3250;2;0;0;0;0;0;7;0;2001;0;0;0;0;8;0;2034;0;0;0;0;9;0;1056;0;0;0;0
05.12.19;21:45:00;1;418;10709;0;2;0;2054;0;0;0;0;3;0;1228;0;0;0;0;4;0;1684;0;0;0;0;5;0;4554;2;0;0;0;0;0;6;0;3250;2;0;0;0;0;0;7;0;2001;0;0;0;0;8;0;2034;0;0;0;0;9;0;1056;0;0;0;0
05.12.19;21:40:00;1;366;10675;0;2;0;2054;0;0;0;0;3;0;1228;0;0;0;0;4;0;1684;0;0;0;0;5;0;4554;2;0;0;0;0;0;6;0;3250;2;0;0;0;0;0;7;0;2001;0;0;0;0;8;0;2034;0;0;0;0;9;0;1056;0;0;0;0
05.12.19;21:35:00;1;668;10645;0;2;0;2054;0;0;0;0;3;0;1228;0;0;0;0;4;0;1684;0;0;0;0;5;0;4554;2;0;0;0;0;0;6;0;3250;2;0;0;0;0;0;7;0;2001;0;0;0;0;8;0;2034;0;0;0;0;9;0;1056;0;0;0;0
05.12.19;21:30:00;1;325;10596;0;2;0;2054;0;0;0;0;3;0;1228;0;0;0;0;4;0;1684;0;0;0;0;5;0;4554;2;0;0;0;0;0;6;0;3250;2;0;0;0;0;0;7;0;2001;0;0;0;0;8;0;2034;0;0;0;0;9;0;1056;0;0;0;0
05.12.19;21:25:00;1;326;10569;0;2;0;2054;0;0;0;0;3;0;1228;0;0;0;0;4;0;1684;0;0;0;0;5;0;4554;2;0;0;0;0;0;6;0;3250;2;0;0;0;0;0;7;0;2001;0;0;0;0;8;0;2034;0;0;0;0;9;0;1056;0;0;0;0
05.12.19;21:20:00;1;398;10542;0;2;0;2054;0;0;0;0;3;0;1228;0;0;0;0;4;0;1684;0;0;0;0;5;0;4554;2;0;0;0;0;0;6;0;3250;2;0;0;0;0;0;7;0;2001;0;0;0;0;8;0;2034;0;0;0;0;9;0;1056;0;0;0;0
05.12.19;21:15:00;1;472;10508;0;2;0;2054;0;0;0;0;3;0;1228;0;0;0;0;4;0;1684;0;0;0;0;5;0;4554;2;0;0;0;0;0;6;0;3250;2;0;0;0;0;0;7;0;2001;0;0;0;0;8;0;2034;0;0;0;0;9;0;1056;0;0;0;0
05.12.19;21:10:00;1;908;10470;0;2;0;2054;0;0;0;0;3;0;1228;0;0;0;0;4;0;1684;0;0;0;0;5;0;4554;2;0;0;0;0;0;6;0;3250;2;0;0;0;0;0;7;0;2001;0;0;0;0;8;0;2034;0;0;0;0;9;0;1056;0;0;0;0
05.12.19;21:05:00;1;537;10399;0;2;0;2054;0;0;0;0;3;0;1228;0;0;0;0;4;0;1684;0;0;0;0;5;0;4554;2;0;0;0;0;0;6;0;3250;2;0;0;0;0;0;7;0;2001;0;0;0;0;8;0;2034;0;0;0;0;9;0;1056;0;0;0;0
05.12.19;21:00:00;1;566;10355;0;2;0;2054;0;0;0;0;3;0;1228;0;0;0;0;4;0;1684;0;0;0;0;5;0;4554;2;0;0;0;0;0;6;0;3250;2;0;0;0;0;0;7;0;2001;0;0;0;0;8;0;2034;0;0;0;0;9;0;1056;0;0;0;0
05.12.19;20:55:00;1;563;10307;0;2;0;2054;0;0;0;0;3;0;1228;0;0;0;0;4;0;1684;0;0;0;0;5;0;4554;2;0;0;0;0;0;6;0;3250;2;0;0;0;0;0;7;0;2001;0;0;0;0;8;0;2034;0;0;0;0;9;0;1056;0;0;0;0
05.12.19;20:50:00;1;562;10261;0;2;0;2054;0;0;0;0;3;0;1228;0;0;0;0;4;0;1684;0;0;0;0;5;0;4554;2;0;0;0;0;0;6;0;3250;2;0;0;0;0;0;7;0;2001;0;0;0;0;8;0;2034;0;0;0;0;9;0;1056;0;0;0;0
05.12.19;20:45:00;1;708;10214;0;2;0;2054;0;0;0;0;3;0;1228;0;0;0;0;4;0;1684;0;0;0;0;5;0;4554;2;0;0;0;0;0;6;0;3250;2;0;0;0;0;0;7;0;2001;0;0;0;0;8;0;2034;0;0;0;0;9;0;1056;0;0;0;0
05.12.19;20:40:00;1;498;10148;0;2;0;2054;0;0;0;0;3;0;1228;0;0;0;0;4;0;1684;0;0;0;0;5;0;4554;2;0;0;0;0;0;6;0;3250;2;0;0;0;0;0;7;0;2001;0;0;0;0;8;0;2034;0;0;0;0;9;0;1056;0;0;0;0
05.12.19;20:35:00;1;455;10110;0;2;0;2054;0;0;0;0;3;0;1228;0;0;0;0;4;0;1684;0;0;0;0;5;0;4554;2;0;0;0;0;0;6;0;3250;2;0;0;0;0;0;7;0;2001;0;0;0;0;8;0;2034;0;0;0;0;9;0;1056;0;0;0;0
05.12.19;20:30:00;1;456;10072;0;2;0;2054;0;0;0;0;3;0;1228;0;0;0;0;4;0;1684;0;0;0;0;5;0;4554;2;0;0;0;0;0;6;0;3250;2;0;0;0;0;0;7;0;2001;0;0;0;0;8;0;2034;0;0;0;0;9;0;1056;0;0;0;0
05.12.19;20:25:00;1;455;10034;0;2;0;2054;0;0;0;0;3;0;1228;0;0;0;0;4;0;1684;0;0;0;0;5;0;4554;2;0;0;0;0;0;6;0;3250;2;0;0;0;0;0;7;0;2001;0;0;0;0;8;0;2034;0;0;0;0;9;0;1056;0;0;0;0
05.12.19;20:20:00;1;471;9995;0;2;0;2054;0;0;0;0;3;0;1228;0;0;0;0;4;0;1684;0;0;0;0;5;0;4554;2;0;0;0;0;0;6;0;3250;2;0;0;0;0;0;7;0;2001;0;0;0;0;8;0;2034;0;0;0;0;9;0;1056;0;0;0;0
05.12.19;20:15:00;1;484;9935;0;2;0;2054;0;0;0;0;3;0;1228;0;0;0;0;4;0;1684;0;0;0;0;5;0;4554;2;0;0;0;0;0;6;0;3250;2;0;0;0;0;0;7;0;2001;0;0;0;0;8;0;2034;0;0;0;0;9;0;1056;0;0;0;0
05.12.19;20:10:00;1;506;9894;0;2;0;2054;0;0;0;0;3;0;1228;0;0;0;0;4;0;1684;0;0;0;0;5;0;4554;2;0;0;0;0;0;6;0;3250;2;0;0;0;0;0;7;0;2001;0;0;0;0;8;0;2034;0;0;0;0;9;0;1056;0;0;0;0
05.12.19;20:05:00;1;503;9852;0;2;0;2054;0;0;0;0;3;0;1228;0;0;0;0;4;0;1684;0;0;0;0;5;0;4554;2;0;0;0;0;0;6;0;3250;2;0;0;0;0;0;7;0;2001;0;0;0;0;8;0;2034;0;0;0;0;9;0;1056;0;0;0;0
05.12.19;20:00:00;1;495;9810;0;2;0;2054;0;0;0;0;3;0;1228;0;0;0;0;4;0;1684;0;0;0;0;5;0;4554;2;0;0;0;0;0;6;0;3250;2;0;0;0;0;0;7;0;2001;0;0;0;0;8;0;2034;0;0;0;0;9;0;1056;0;0;0;0
05.12.19;19:55:00;1;454;9769;0;2;0;2054;0;0;0;0;3;0;1228;0;0;0;0;4;0;1684;0;0;0;0;5;0;4554;2;0;0;0;0;0;6;0;3250;2;0;0;0;0;0;7;0;2001;0;0;0;0;8;0;2034;0;0;0;0;9;0;1056;0;0;0;0
05.12.19;19:50:00;1;1146;9730;0;2;0;2054;0;0;0;0;3;0;1228;0;0;0;0;4;0;1684;0;0;0;0;5;0;4554;2;0;0;0;0;0;6;0;3250;2;0;0;0;0;0;7;0;2001;0;0;0;0;8;0;2034;0;0;0;0;9;0;1056;0;0;0;0
05.12.19;19:45:00;1;823;9672;0;2;0;2054;0;0;0;0;3;0;1228;0;0;0;0;4;0;1684;0;0;0;0;5;0;4554;2;0;0;0;0;0;6;0;3250;2;0;0;0;0;0;7;0;2001;0;0;0;0;8;0;2034;0;0;0;0;9;0;1056;0;0;0;0
05.12.19;19:40:00;1;2620;9553;0;2;0;2054;0;0;0;0;3;0;1228;0;0;0;0;4;0;1684;0;0;0;0;5;0;4554;2;0;0;0;0;0;6;0;3250;2;0;0;0;0;0;7;0;2001;0;0;0;0;8;0;2034;0;0;0;0;9;0;1056;0;0;0;0
05.12.19;19:35:00;1;456;9390;0;2;0;2054;0;0;0;0;3;0;1228;0;0;0;0;4;0;1684;0;0;0;0;5;0;4554;2;0;0;0;0;0;6;0;3250;2;0;0;0;0;0;7;0;2001;0;0;0;0;8;0;2034;0;0;0;0;9;0;1056;0;0;0;0
05.12.19;19:30:00;1;452;9352;0;2;0;2054;0;0;0;0;3;0;1228;0;0;0;0;4;0;1684;0;0;0;0;5;0;4554;2;0;0;0;0;0;6;0;3250;2;0;0;0;0;0;7;0;2001;0;0;0;0;8;0;2034;0;0;0;0;9;0;1056;0;0;0;0
05.12.19;19:25:00;1;1055;9314;0;2;0;2054;0;0;0;0;3;0;1228;0;0;0;0;4;0;1684;0;0;0;0;5;0;4554;2;0;0;0;0;0;6;0;3250;2;0;0;0;0;0;7;0;2001;0;0;0;0;8;0;2034;0;0;0;0;9;0;1056;0;0;0;0
05.12.19;19:20:00;1;492;9252;0;2;0;2054;0;0;0;0;3;0;1228;0;0;0;0;4;0;1684;0;0;0;0;5;0;4554;2;0;0;0;0;0;6;0;3250;2;0;0;0;0;0;7;0;2001;0;0;0;0;8;0;2034;0;0;0;0;9;0;1056;0;0;0;0
05.12.19;19:15:00;1;494;9211;0;2;0;2054;0;0;0;0;3;0;1228;0;0;0;0;4;0;1684;0;0;0;0;5;0;4554;2;0;0;0;0;0;6;0;3250;2;0;0;0;0;0;7;0;2001;0;0;0;0;8;0;2034;0;0;0;0;9;0;1056;0;0;0;0
05.12.19;19:10:00;1;493;9170;0;2;0;2054;0;0;0;0;3;0;1228;0;0;0;0;4;0;1684;0;0;0;0;5;0;4554;2;0;0;0;0;0;6;0;3250;2;0;0;0;0;0;7;0;2001;0;0;0;0;8;0;2034;0;0;0;0;9;0;1056;0;0;0;0
05.12.19;19:05:00;1;456;9129;0;2;0;2054;0;0;0;0;3;0;1228;0;0;0;0;4;0;1684;0;0;0;0;5;0;4554;2;0;0;0;0;0;6;0;3250;2;0;0;0;0;0;7;0;2001;0;0;0;0;8;0;2034;0;0;0;0;9;0;1056;0;0;0;0
05.12.19;19:00:00;1;499;9091;0;2;0;2054;0;0;0;0;3;0;1228;0;0;0;0;4;0;1684;0;0;0;0;5;0;4554;2;0;0;0;0;0;6;0;3250;2;0;0;0;0;0;7;0;2001;0;0;0;0;8;0;2034;0;0;0;0;9;0;1056;0;0;0;0
05.12.19;18:55:00;1;1122;9030;0;2;0;2054;0;0;0;0;3;0;1228;0;0;0;0;4;0;1684;0;0;0;0;5;0;4554;2;0;0;0;0;0;6;0;3250;2;0;0;0;0;0;7;0;2001;0;0;0;0;8;0;2034;0;0;0;0;9;0;1056;0;0;0;0
05.12.19;18:50:00;1;528;8982;0;2;0;2054;0;0;0;0;3;0;1228;0;0;0;0;4;0;1684;0;0;0;0;5;0;4554;2;0;0;0;0;0;6;0;3250;2;0;0;0;0;0;7;0;2001;0;0;0;0;8;0;2034;0;0;0;0;9;0;1056;0;0;0;0
05.12.19;18:45:00;1;519;8938;0;2;0;2054;0;0;0;0;3;0;1228;0;0;0;0;4;0;1684;0;0;0;0;5;0;4554;2;0;0;0;0;0;6;0;3250;2;0;0;0;0;0;7;0;2001;0;0;0;0;8;0;2034;0;0;0;0;9;0;1056;0;0;0;0
05.12.19;18:40:00;1;516;8895;0;2;0;2054;0;0;0;0;3;0;1228;0;0;0;0;4;0;1684;0;0;0;0;5;0;4554;2;0;0;0;0;0;6;0;3250;2;0;0;0;0;0;7;0;2001;0;0;0;0;8;0;2034;0;0;0;0;9;0;1056;0;0;0;0
05.12.19;18:35:00;1;523;8852;0;2;0;2054;0;0;0;0;3;0;1228;0;0;0;0;4;0;1684;0;0;0;0;5;0;4554;2;0;0;0;0;0;6;0;3250;2;0;0;0;0;0;7;0;2001;0;0;0;0;8;0;2034;0;0;0;0;9;0;1056;0;0;0;0
05.12.19;18:30:00;1;568;8808;0;2;0;2054;0;0;0;0;3;0;1228;0;0;0;0;4;0;1684;0;0;0;0;5;0;4554;2;0;0;0;0;0;6;0;3250;2;0;0;0;0;0;7;0;2001;0;0;0;0;8;0;2034;0;0;0;0;9;0;1056;0;0;0;0
05.12.19;18:25:00;1;513;8737;0;2;0;2054;0;0;0;0;3;0;1228;0;0;0;0;4;0;1684;0;0;0;0;5;0;4554;2;0;0;0;0;0;6;0;3250;2;0;0;0;0;0;7;0;2001;0;0;0;0;8;0;2034;0;0;0;0;9;0;1056;0;0;0;0
05.12.19;18:20:00;1;500;8695;0;2;0;2054;0;0;0;0;3;0;1228;0;0;0;0;4;0;1684;0;0;0;0;5;0;4554;2;0;0;0;0;0;6;0;3250;2;0;0;0;0;0;7;0;2001;0;0;0;0;8;0;2034;0;0;0;0;9;0;1056;0;0;0;0
05.12.19;18:15:00;1;454;8652;0;2;0;2054;0;0;0;0;3;0;1228;0;0;0;0;4;0;1684;0;0;0;0;5;0;4554;2;0;0;0;0;0;6;0;3250;2;0;0;0;0;0;7;0;2001;0;0;0;0;8;0;2034;0;0;0;0;9;0;1056;0;0;0;0
05.12.19;18:10:00;1;453;8615;0;2;0;2054;0;0;0;0;3;0;1228;0;0;0;0;4;0;1684;0;0;0;0;5;0;4554;2;0;0;0;0;0;6;0;3250;2;0;0;0;0;0;7;0;2001;0;0;0;0;8;0;2034;0;0;0;0;9;0;1056;0;0;0;0
05.12.19;18:05:00;1;1144;8577;0;2;0;2054;0;0;0;0;3;0;1228;0;0;0;0;4;0;1684;0;0;0;0;5;0;4554;2;0;0;0;0;0;6;0;3250;2;0;0;0;0;0;7;0;2001;0;0;0;0;8;0;2034;0;0;0;0;9;0;1056;0;0;0;0
05.12.19;18:00:00;1;491;8515;0;2;0;2054;0;0;0;0;3;0;1228;0;0;0;0;4;0;1684;0;0;0;0;5;0;4554;2;0;0;0;0;0;6;0;3250;2;0;0;0;0;0;7;0;2001;0;0;0;0;8;0;2034;0;0;0;0;9;0;1056;0;0;0;0
05.12.19;17:55:00;1;532;8474;0;2;0;2054;0;0;0;0;3;0;1228;0;0;0;0;4;0;1684;0;0;0;0;5;0;4554;2;0;0;0;0;0;6;0;3250;2;0;0;0;0;0;7;0;2001;0;0;0;0;8;0;2034;0;0;0;0;9;0;1056;0;0;0;0
05.12.19;17:50:00;1;624;8429;0;2;0;2054;0;0;0;0;3;0;1228;0;0;0;0;4;0;1684;0;0;0;0;5;0;4554;2;0;0;0;0;0;6;0;3250;2;0;0;0;0;0;7;0;2001;0;0;0;0;8;0;2034;0;0;0;0;9;0;1056;0;0;0;0
05.12.19;17:45:00;1;1457;8377;0;2;0;2054;0;0;0;0;3;0;1228;0;0;0;0;4;0;1684;0;0;0;0;5;0;4554;2;0;0;0;0;0;6;0;3250;2;0;0;0;0;0;7;0;2001;0;0;0;0;8;0;2034;0;0;0;0;9;0;1056;0;0;0;0
05.12.19;17:40:00;1;646;8259;0;2;0;2054;0;0;0;0;3;0;1228;0;0;0;0;4;0;1684;0;0;0;0;5;0;4554;2;0;0;0;0;0;6;0;3250;2;0;0;0;0;0;7;0;2001;0;0;0;0;8;0;2034;0;0;0;0;9;0;1056;0;0;0;0
05.12.19;17:35:00;1;662;8182;0;2;0;2054;0;0;0;0;3;0;1228;0;0;0;0;4;0;1684;0;0;0;0;5;0;4554;2;0;0;0;0;0;6;0;3250;2;0;0;0;0;0;7;0;2001;0;0;0;0;8;0;2034;0;0;0;0;9;0;1056;0;0;0;0
05.12.19;17:30:00;1;663;8127;0;2;0;2054;0;0;0;0;3;0;1228;0;0;0;0;4;0;1684;0;0;0;0;5;0;4554;2;0;0;0;0;0;6;0;3250;2;0;0;0;0;0;7;0;2001;0;0;0;0;8;0;2034;0;0;0;0;9;0;1056;0;0;0;0
05.12.19;17:25:00;1;625;8072;0;2;0;2054;0;0;0;0;3;0;1228;0;0;0;0;4;0;1684;0;0;0;0;5;0;4554;2;0;0;0;0;0;6;0;3250;2;0;0;0;0;0;7;0;2001;0;0;0;0;8;0;2034;0;0;0;0;9;0;1056;0;0;0;0
05.12.19;17:20:00;1;594;8020;0;2;0;2054;0;0;0;0;3;0;1228;0;0;0;0;4;0;1684;0;0;0;0;5;0;4554;2;0;0;0;0;0;6;0;3250;2;0;0;0;0;0;7;0;2001;0;0;0;0;8;0;2034;0;0;0;0;9;0;1056;0;0;0;0
05.12.19;17:15:00;1;611;7970;0;2;0;2054;0;0;0;0;3;0;1228;0;0;0;0;4;0;1684;0;0;0;0;5;0;4554;2;0;0;0;0;0;6;0;3250;2;0;0;0;0;0;7;0;2001;0;0;0;0;8;0;2034;0;0;0;0;9;0;1056;0;0;0;0
05.12.19;17:10:00;1;633;7919;0;2;0;2054;0;0;0;0;3;0;1228;0;0;0;0;4;0;1684;0;0;0;0;5;0;4554;2;0;0;0;0;0;6;0;3250;2;0;0;0;0;0;7;0;2001;0;0;0;0;8;0;2034;0;0;0;0;9;0;1056;0;0;0;0
05.12.19;17:05:00;1;1002;7831;0;2;0;2054;0;0;0;0;3;0;1228;0;0;0;0;4;0;1684;0;0;0;0;5;0;4554;2;0;0;0;0;0;6;0;3250;2;0;0;0;0;0;7;0;2001;0;0;0;0;8;0;2034;0;0;0;0;9;0;1056;0;0;0;0
05.12.19;17:00:00;1;780;7749;0;2;0;2054;0;0;0;0;3;0;1228;0;0;0;0;4;0;1684;0;0;0;0;5;0;4554;2;0;0;0;0;0;6;0;3250;2;0;0;0;0;0;7;0;2001;0;0;0;0;8;0;2034;0;0;0;0;9;0;1056;0;0;0;0
05.12.19;16:55:00;1;801;7684;0;2;0;2054;0;0;0;0;3;0;1228;0;0;0;0;4;0;1684;0;0;0;0;5;0;4554;2;0;0;0;0;0;6;0;3250;2;0;0;0;0;0;7;0;2001;0;0;0;0;8;0;2034;0;0;0;0;9;0;1056;0;0;0;0
05.12.19;16:50:00;1;1278;7618;0;2;0;2054;0;0;0;0;3;0;1228;0;0;0;0;4;0;1684;0;0;0;0;5;0;4554;2;0;0;0;0;0;6;0;3250;2;0;0;0;0;0;7;0;2001;0;0;0;0;8;0;2034;0;0;0;0;9;0;1056;0;0;0;0
05.12.19;16:45:00;1;2895;7469;0;2;0;2054;0;0;0;0;3;0;1228;0;0;0;0;4;0;1684;0;0;0;0;5;0;4554;2;0;0;0;0;0;6;0;3250;2;0;0;0;0;0;7;0;2001;0;0;0;0;8;0;2034;0;0;0;0;9;0;1056;0;0;0;0
05.12.19;16:40:00;1;779;7258;0;2;0;2054;0;0;0;0;3;0;1228;0;0;0;0;4;0;1684;0;0;0;0;5;0;4554;2;0;0;0;0;0;6;0;3250;2;0;0;0;0;0;7;0;2001;0;0;0;0;8;0;2034;0;0;0;0;9;0;1056;0;0;0;0
05.12.19;16:35:00;1;468;7193;0;2;0;2054;0;0;0;0;3;0;1228;0;0;35;1;4;0;1684;0;0;0;0;5;0;4554;2;0;0;0;0;0;6;0;3250;2;0;0;0;0;0;7;0;2001;0;0;0;0;8;0;2034;0;0;0;0;9;0;1056;0;0;0;0
05.12.19;16:30:00;1;457;7154;0;2;0;2054;0;0;221;8;3;0;1228;6;0;288;13;4;0;1684;0;0;0;0;5;0;4554;2;0;0;0;0;0;6;0;3250;2;0;0;0;0;0;7;0;2001;0;0;0;0;8;0;2034;0;0;0;0;9;0;1056;0;0;0;0
05.12.19;16:25:00;1;454;7116;0;2;0;2054;6;0;306;10;3;0;1228;6;0;352;13;4;0;1684;0;0;66;5;5;0;4554;2;0;0;0;0;0;6;0;3250;1;0;0;0;0;0;7;0;2001;0;0;0;0;8;0;2034;0;0;0;0;9;0;1056;0;0;0;0
05.12.19;16:20:00;1;1054;7077;0;2;0;2054;6;0;333;10;3;0;1228;6;0;392;14;4;0;1684;1;0;98;6;5;0;4554;1;1;2;241;238;18;6;0;3250;2;6;2;179;89;10;7;0;2001;0;0;0;0;8;0;2034;0;0;0;0;9;0;1056;0;0;0;0
05.12.19;16:15:00;1;390;6979;0;2;0;2054;6;0;360;10;3;0;1228;6;2;426;14;4;0;1684;1;0;129;6;5;0;4554;23;0;1;394;437;19;6;0;3250;23;8;6;238;447;18;7;0;2001;0;0;155;7;8;0;2034;0;0;207;8;9;0;1056;6;0;276;8
05.12.19;16:10:00;1;405;6946;0;2;0;2054;6;0;378;11;3;0;1228;6;2;447;14;4;0;1684;1;0;157;6;5;0;4554;26;0;0;417;592;19;6;0;3250;23;5;5;181;547;18;7;0;2001;6;0;296;12;8;0;2034;6;0;301;11;9;0;1056;6;0;318;8
05.12.19;16:05:00;1;423;6910;0;2;0;2054;6;0;395;11;3;1;1228;6;3;454;14;4;0;1684;1;0;188;7;5;0;4554;23;0;2;427;653;19;6;0;3250;23;3;7;528;244;19;7;0;2001;6;0;355;12;8;0;2034;6;0;362;11;9;0;1056;6;0;385;8
05.12.19;16:00:00;1;427;6875;0;2;0;2054;6;0;404;11;3;0;1228;6;0;513;14;4;0;1684;1;0;208;7;5;10;4553;4;0;3;423;662;20;6;0;3250;23;4;5;266;505;19;7;0;2001;6;0;392;12;8;0;2034;6;0;398;12;9;0;1056;6;0;329;6
05.12.19;15:55:00;1;426;6839;0;2;0;2054;6;0;415;11;3;3;1228;3;9;476;14;4;0;1684;1;0;222;7;5;72;4552;4;16;19;382;606;21;6;9;3250;23;2;6;499;566;20;7;0;2001;3;2;411;12;8;0;2034;3;1;416;12;9;0;1056;6;0;392;6
05.12.19;15:50:00;1;896;6803;0;2;0;2054;6;0;423;12;3;3;1228;6;5;513;14;4;0;1684;3;0;226;7;5;87;4546;4;22;32;382;605;21;6;54;3249;4;26;37;471;448;21;7;0;2001;6;2;444;12;8;1;2034;6;2;450;12;9;1;1056;4;1;493;8
05.12.19;15:45:00;1;389;6745;0;2;7;2054;3;14;406;12;3;1;1227;6;5;523;14;4;0;1684;3;0;199;8;5;109;4538;4;38;38;382;606;21;6;68;3245;4;31;39;471;448;21;7;2;2001;6;4;468;13;8;2;2034;6;4;470;12;9;4;1056;3;7;467;9
05.12.19;15:40:00;1;382;6712;0;2;9;2053;6;14;419;12;3;2;1227;6;8;530;15;4;1;1684;3;1;199;8;5;139;4529;4;52;51;382;606;21;6;85;3239;4;37;49;471;448;21;7;2;2001;6;5;478;13;8;2;2034;6;6;480;12;9;0;1056;6;4;526;9
05.12.19;15:35:00;1;382;6680;0;2;55;2052;4;80;374;12;3;5;1227;6;10;546;15;4;19;1684;3;20;199;8;5;179;4517;4;72;73;382;606;21;6;112;3231;4;47;58;471;448;21;7;7;2001;6;15;471;13;8;6;2034;6;14;471;13;9;2;1055;6;5;546;9
05.12.19;15:30:00;1;383;6648;0;2;67;2048;4;92;373;13;3;6;1227;6;12;545;15;4;29;1682;3;30;198;8;5;199;4502;4;92;78;382;606;21;6;129;3222;4;47;61;471;448;21;7;0;2000;6;0;521;13;8;0;2033;6;0;523;13;9;2;1055;6;6;539;9
05.12.19;15:25:00;1;1309;6616;0;2;76;2042;4;104;390;13;3;13;1226;4;23;526;15;4;37;1680;3;38;198;8;5;223;4485;4;103;94;382;606;21;6;147;3211;4;79;91;471;448;21;7;50;2000;4;79;412;13;8;48;2033;4;79;423;13;9;3;1055;6;6;560;9
05.12.19;15:20:00;1;1548;6467;0;2;93;2036;4;121;376;13;3;10;1225;6;16;554;15;4;50;1677;3;52;198;8;5;247;4467;4;111;105;382;606;21;6;160;3198;4;80;90;471;448;21;7;54;1996;4;91;438;13;8;53;2029;4;91;435;13;9;5;1055;6;9;434;7
05.12.19;15:15:00;1;1649;6373;0;2;100;2028;4;127;370;13;3;20;1224;6;31;538;15;4;59;1673;3;61;198;8;5;266;4446;4;121;111;382;606;21;6;172;3185;4;86;100;471;448;21;7;65;1992;4;103;431;13;8;68;2025;4;108;435;13;9;13;1054;3;20;543;9
05.12.19;15:10:00;1;431;6248;0;2;124;2020;4;154;378;13;3;69;1222;4;105;488;16;4;74;1668;3;77;198;8;5;306;4424;4;148;124;382;606;21;6;201;3170;4;101;114;472;448;21;7;94;1986;4;124;432;14;8;95;2019;4;128;435;13;9;22;1053;6;30;533;9
05.12.19;15:05:00;1;446;6212;0;2;147;2009;4;175;385;13;3;83;1217;4;119;465;16;4;102;1662;5;106;230;8;5;349;4398;4;170;152;382;606;21;6;230;3153;4;110;123;472;448;21;7;85;1978;4;122;375;11;8;119;2011;4;153;436;13;9;36;1051;6;46;530;9
05.12.19;15:00:00;1;447;6175;0;2;169;1997;4;196;386;13;3;93;1210;4;135;511;16;4;118;1653;5;123;230;8;5;382;4368;4;184;163;393;606;21;6;240;3134;4;87;97;471;448;21;7;81;1966;0;95;260;8;8;126;2002;4;159;429;13;9;14;1048;6;19;581;9
05.12.19;14:55:00;1;838;6137;0;2;202;1983;4;232;390;13;3;117;1202;4;156;521;16;4;153;1643;5;159;233;8;5;457;4336;4;225;190;406;606;21;6;294;3113;4;151;154;471;448;21;7;182;1960;4;226;485;14;8;192;1991;4;227;478;13;9;90;1047;4;108;511;10
05.12.19;14:50:00;1;1420;6081;0;2;165;1966;4;192;389;13;3;97;1192;4;135;496;16;4;116;1630;5;121;226;8;5;394;4298;4;192;165;386;606;21;6;258;3089;4;116;131;472;448;21;7;137;1945;4;171;443;14;8;108;1972;0;133;372;10;9;28;1039;6;37;555;10
05.12.19;14:45:00;1;780;5956;0;2;173;1952;4;203;390;13;3;99;1184;4;138;505;16;4;128;1621;5;133;232;8;5;398;4265;4;195;175;382;606;21;6;261;3067;4;110;121;471;448;21;7;148;1933;4;196;461;14;8;161;1963;4;198;463;13;9;85;1037;4;113;504;10
05.12.19;14:40:00;1;421;5893;0;2;175;1938;4;205;390;13;3;101;1176;4;141;511;16;4;128;1610;5;133;232;8;5;400;4232;4;192;177;382;606;21;6;262;3045;4;130;140;471;448;21;7;154;1921;4;180;474;14;8;160;1950;4;190;448;13;9;83;1030;4;109;503;10
05.12.19;14:35:00;1;1583;5845;0;2;171;1923;4;201;388;13;3;99;1167;4;140;507;16;4;128;1599;5;134;230;8;5;397;4198;4;199;176;382;606;21;6;263;3023;4;135;148;471;448;21;7;151;1908;4;190;445;14;8;155;1936;4;197;459;13;9;87;1023;4;114;495;10
05.12.19;14:30:00;1;1602;5713;0;2;184;1909;4;213;386;13;3;107;1159;4;147;510;16;4;139;1588;5;144;233;8;5;435;4165;4;214;180;410;606;21;6;275;3001;4;118;124;471;447;21;7;162;1895;4;199;442;14;8;167;1923;4;201;445;13;9;87;1015;4;112;485;10
05.12.19;14:25:00;1;2416;5580;0;2;191;1893;4;221;388;13;3;112;1150;4;153;515;16;4;147;1577;5;153;237;8;5;435;4129;4;213;186;392;606;21;6;280;2978;4;132;142;471;448;21;7;177;1882;4;215;460;14;8;184;1910;4;217;466;13;9;97;1008;4;122;490;10
05.12.19;14:20:00;1;1638;5424;0;2;193;1878;4;221;383;13;3;111;1140;4;152;517;16;4;145;1565;5;150;233;8;5;440;4092;4;215;182;395;606;21;6;282;2954;4;133;137;471;448;21;7;188;1867;4;217;468;14;8;180;1895;4;217;475;13;9;102;1000;4;127;493;10
05.12.19;14:15:00;1;508;5322;0;2;188;1861;4;219;390;13;3;111;1131;4;148;513;16;4;142;1553;5;147;230;8;5;422;4055;4;208;179;388;606;21;6;278;2931;4;156;160;471;448;21;7;165;1851;4;204;468;14;8;172;1879;4;204;471;13;9;79;992;4;100;424;8
05.12.19;14:10:00;1;1415;5280;0;2;180;1846;4;212;392;13;3;103;1122;4;141;521;16;4;132;1541;5;137;228;8;5;413;4020;4;203;176;405;606;21;6;275;2908;4;125;142;478;485;20;7;167;1838;4;191;451;14;8;155;1865;4;194;466;13;9;83;984;4;109;515;10
05.12.19;14:05:00;1;1208;5164;0;2;244;1831;4;277;396;13;3;147;1113;4;185;511;16;4;196;1530;5;203;236;8;5;554;3985;4;280;232;413;631;21;6;415;2884;4;203;220;592;571;20;7;220;1824;4;261;477;14;8;232;1852;4;265;478;13;9;122;977;4;148;523;10
05.12.19;14:00:00;1;370;5079;0;2;277;1811;4;311;402;13;3;164;1101;4;206;532;16;4;225;1514;5;235;238;9;5;613;3939;4;309;266;417;675;21;6;457;2849;4;212;231;590;574;20;7;257;1805;4;308;484;14;8;260;1833;4;300;493;13;9;147;967;4;174;528;10
05.12.19;13:55:00;1;700;5048;0;2;318;1787;4;351;402;13;3;195;1087;4;234;520;16;4;264;1495;5;275;239;9;5;693;3886;4;334;296;417;687;21;6;521;2810;4;260;275;590;573;20;7;261;1778;0;290;405;11;8;325;1811;4;362;479;13;9;176;955;4;202;529;10
05.12.19;13:50:00;1;279;5002;0;2;313;1761;4;348;402;13;3;191;1071;4;231;522;16;4;259;1473;5;270;241;9;5;682;3829;4;325;293;415;702;21;6;513;2767;4;253;264;590;576;20;7;312;1757;4;357;489;14;8;315;1784;4;358;493;13;9;175;939;4;202;539;10
05.12.19;13:45:00;1;283;4979;0;2;279;1735;4;310;393;13;3;170;1055;4;208;521;16;4;230;1451;5;240;234;9;5;586;3772;4;280;266;381;666;21;6;465;2724;4;230;247;594;576;20;7;284;1732;4;321;481;14;8;240;1757;4;268;400;10;9;135;925;4;157;450;8
05.12.19;13:40:00;1;336;4955;0;2;336;1711;4;373;406;13;3;205;1041;4;245;498;16;4;283;1432;5;295;240;9;5;736;3724;4;347;317;419;704;21;6;545;2685;4;271;287;600;573;20;7;343;1708;4;375;463;14;8;339;1733;4;377;480;13;9;182;912;4;211;523;10